Theta_e
325 323 323 325 324 322 322 323 328 327 327 326 326 326 330 325 324 330 327 328 327 325
327 327 325 326 328 323 326 324 326 326 326 326 325 325 328 323 327 326 328 330 328 325
326 326 327 328 326 327 328 327 327 326 325 325 324 324 326 324 326 326 323 322 326 326
325 325 327 327 326 327 328 328 326 325 325 324 323 324 325 324 322 320 323 324 322 322
325 326 326 326 327 328 327 328 327 326 324 324 322 324 321 319 318 317 318 320 322 320
325 325 328 328 328 328 327 327 326 325 324 320 321 320 320 319 316 316 317 319 320 320
325 324 323 323 323 321 320 320 320 320 318 319 317 317 317 317 315 315 316 320 319 320
322 321 317 316 317 318 314 313 315 314 315 316 316 310 313 315 313 314 316 318 317 319
317 320 318 317 317 316 316 314 314 315 315 315 315 303 304 307 311 313 314 314 315 317
317 315 314 315 315 315 316 317 315 315 314 314 315 301 301 303 310 311 313 314 311 310
314 313 314 313 313 314 312 312 311 313 312 313 313 301 300 301 311 312 312 312 311 311
310 310 311 311 311 313 312 311 311 310 309 309 311 300 299 302 308 308 309 310 311 310
311 310 309 310 310 310 309 308 309 308 309 307 309 298 298 301 304 304 303 307 309 300
309 308 311 310 310 309 308 308 308 308 309 309 307 307 299 298 303 302 302 303 305 307
Wind_Speed
2 4 4 6 6 6 6 5 6 7 8 9 10 11 10 8 9 9 9 7 8 8
4 4 5 2 4 5 4 7 7 8 8 9 9 10 11 9 9 8 9 9 5 8
5 4 2 1 3 4 4 6 7 8 8 8 9 9 10 10 11 9 9 9 9 8
4 3 1 3 5 5 6 7 9 9 10 10 9 9 9 11 12 13 11 10 10 10
4 4 4 5 7 8 9 11 11 10 8 9 9 9 11 13 12 14 14 13 11 9
5 6 4 5 8 9 11 11 11 12 11 9 11 11 11 11 13 15 14 14 9 9
4 6 7 7 8 8 8 9 11 11 11 11 11 10 9 10 12 14 14 12 11 11
9 8 6 2 4 6 5 5 5 7 7 7 10 6 8 10 12 13 14 10 11 9
5 1 3 4 5 7 7 8 9 10 11 11 8 6 8 9 9 14 14 9 9 11
2 5 6 9 9 8 9 9 10 11 11 10 8 5 8 10 10 12 12 10 8 9
7 4 7 8 6 7 8 7 7 8 8 9 6 6 8 12 12 12 12 11 10 9
8 9 10 10 10 9 9 9 8 7 7 7 9 6 7 12 12 12 13 10 9 8
7 10 11 8 9 9 7 9 11 8 6 5 9 4 5 9 10 9 9 11 10 11
10 8 8 9 7 8 8 8 8 10 11 10 9 5 4 7 10 10 10 10 8 2
Wind_Direction
57 73 84 63 15 26 2 43 3 4 5 3 5 2 356 332 336 359 330 327 339 324
115 53 74 68 303 26 11 338 13 344 348 349 353 358 350 360 334 341 338 324 324 320
158 168 138 326 345 328 321 321 320 319 326 332 340 350 347 342 333 336 324 317 335 319
227 216 252 296 300 302 303 297 304 310 311 315 324 340 337 333 325 336 325 313 307 312
243 258 278 288 295 301 315 316 304 293 299 318 325 337 326 324 349 330 321 317 317 328
249 256 291 354 330 329 314 315 311 322 321 332 324 325 331 343 341 326 316 308 338 332
49 15 329 342 355 3 7 354 350 348 343 343 334 330 353 336 331 320 313 344 338 322
39 38 31 27 343 318 326 327 311 309 298 290 306 26 352 343 333 317 320 334 331 336
101 208 25 329 315 313 320 313 308 303 300 286 324 45 36 8 331 313 317 325 330 325
330 355 340 338 325 315 311 304 322 332 333 333 353 42 24 351 325 307 314 327 320 320
340 320 303 321 357 344 348 341 316 329 350 346 22 43 13 340 317 311 341 328 329 321
0 340 334 355 357 332 332 340 352 12 358 353 348 50 15 349 321 335 329 323 344 350
338 354 345 349 342 346 355 339 329 341 336 346 341 94 48 2 334 340 330 317 323 60
23 343 336 14 349 339 328 318 319 337 342 316 334 348 73 14 336 342 322 310 317 24